Beaufort, NC

3:47 PM EDT on October 16, 2019 (GMT -0400)
Smith

Weather History for KMRH - May, 2019

Change the Weather History Date:

Tuesday, May 28, 2019

  Actual Average Record
Temperature  
Mean Temperature 80 °F -  
Max Temperature 86 °F 79 °F 87 °F (1965)
Min Temperature 75 °F 62 °F 45 °F (1961)
Cooling Degree Days 14    
Growing Degree Days 30 (Base 50)    
Moisture  
Dew Point 74 °F    
Average Humidity 80    
Maximum Humidity 88    
Minimum Humidity 72    
Precipitation  
Precipitation 0.00 in - - ()
Sea Level Pressure  
Sea Level Pressure 29.90 in    
Wind  
Wind Speed 8 mph (South)    
Max Wind Speed 14 mph    
Max Gust Speed 20 mph    
Visibility 10 miles    
Events      
Averages and records for this station are not official NWS values.
T = Trace of Precipitation, MM = Missing Value Source: NWS Daily Summary

Daily Weather History Graph

Daily Weather History Graph

Search for Another Location

Airport or City:

Astronomy

May. 28, 2019 Rise Set
Actual Time 5:56 AM EDT 8:12 PM EDT
Civil Twilight 5:27 AM EDT 8:40 PM EDT
Nautical Twilight 4:52 AM EDT 9:16 PM EDT
Astronomical Twilight 4:13 AM EDT 9:54 PM EDT
Moon 2:48 AM EDT (5/28) 2:37 PM EDT (5/28)
Length of Visible Light 15h 13m
Length of Day
14h 15m
Waning Crescent, 32% of the Moon is Illuminated
May 28
Waning Crescent
Jun 3
New
Jun 10
First Quarter
Jun 17
Full
Jun 25
Last Quarter

Hourly Weather History & Observations

Time (EDT) Temp. Heat Index Dew Point Humidity Pressure Visibility Wind Dir Wind Speed Gust Speed Precip Events Conditions
12:58 AM 75.9 °F - 69.1 °F 79% 29.94 in 10.0 mi ESE 5.8 mph - N/A   Clear
1:58 AM 75.9 °F - 69.1 °F 79% 29.93 in 10.0 mi ESE 6.9 mph - N/A   Clear
2:58 AM 75.9 °F - 70.0 °F 82% 29.93 in 10.0 mi SSE 4.6 mph - N/A   Clear
3:58 AM 77.0 °F - 71.1 °F 82% 29.93 in 10.0 mi ESE 3.5 mph - N/A   Mostly Cloudy
4:58 AM 75.9 °F - 71.1 °F 85% 29.93 in 10.0 mi SE 3.5 mph - N/A   Clear
5:58 AM 75.9 °F - 72.0 °F 87% 29.93 in 10.0 mi SSE 3.5 mph - N/A   Clear
6:58 AM 77.0 °F - 73.0 °F 88% 29.94 in 10.0 mi SE 3.5 mph - N/A   Clear
7:58 AM 81.0 °F 86.2 °F 73.9 °F 79% 29.95 in 10.0 mi SSE 8.1 mph - N/A   Clear
8:58 AM 82.0 °F 87.9 °F 73.9 °F 76% 29.95 in 10.0 mi SSE 10.4 mph - N/A   Clear
9:58 AM 82.9 °F 90.8 °F 75.9 °F 79% 29.95 in 10.0 mi South 10.4 mph - N/A   Clear
10:58 AM 84.0 °F 93.7 °F 77.0 °F 79% 29.95 in 10.0 mi South 11.5 mph - N/A   Partly Cloudy
11:26 AM 84.0 °F 93.7 °F 77.0 °F 79% 29.94 in 10.0 mi SSW 13.8 mph - N/A   Partly Cloudy
11:58 AM 84.0 °F 93.7 °F 77.0 °F 79% 29.93 in 10.0 mi South 11.5 mph - N/A   Partly Cloudy
12:58 PM 84.9 °F 93.3 °F 75.0 °F 72% 29.91 in 10.0 mi South 11.5 mph - N/A   Clear
1:58 PM 84.9 °F 94.1 °F 75.9 °F 74% 29.90 in 10.0 mi SSW 12.7 mph - N/A   Clear
2:58 PM 84.9 °F 94.1 °F 75.9 °F 74% 29.88 in 10.0 mi SSW 12.7 mph - N/A   Clear
3:58 PM 82.9 °F 90.8 °F 75.9 °F 79% 29.86 in 10.0 mi South 12.7 mph - N/A   Clear
4:58 PM 84.0 °F 92.6 °F 75.9 °F 76% 29.85 in 10.0 mi South 11.5 mph 19.6 mph N/A   Clear
5:58 PM 84.9 °F 93.3 °F 75.0 °F 72% 29.84 in 10.0 mi South 12.7 mph - N/A   Clear
6:58 PM 82.9 °F 90.2 °F 75.0 °F 77% 29.83 in 10.0 mi South 11.5 mph - N/A   Clear
7:58 PM 81.0 °F 87.3 °F 75.9 °F 85% 29.84 in 10.0 mi South 11.5 mph - N/A   Clear
8:58 PM 80.1 °F 85.4 °F 75.9 °F 87% 29.84 in 10.0 mi SSW 10.4 mph - N/A   Clear
9:58 PM 80.1 °F 85.1 °F 75.0 °F 85% 29.86 in 9.0 mi SSW 11.5 mph - N/A   Clear
10:58 PM 80.1 °F 84.5 °F 73.9 °F 81% 29.86 in 9.0 mi SSW 11.5 mph - N/A   Clear
11:58 PM 79.0 °F - 73.0 °F 82% 29.86 in 10.0 mi SSW 9.2 mph - N/A   Clear